TimeEST,TemperatureF,Dew PointF,Humidity,Sea Level PressureIn,VisibilityMPH,Wind Direction,Wind SpeedMPH,Gust SpeedMPH,PrecipitationIn,Events,Conditions,WindDirDegrees,DateUTC
12:53 AM,75.0,66.9,76,30.13,10.0,ENE,9.2,-,N/A,,Scattered Clouds,70,2011-11-14 05:53:00
1:53 AM,75.0,66.9,76,30.11,10.0,ENE,8.1,-,N/A,,Mostly Cloudy,70,2011-11-14 06:53:00
2:53 AM,75.9,69.1,79,30.10,10.0,ENE,9.2,-,N/A,,Mostly Cloudy,70,2011-11-14 07:53:00
3:53 AM,75.9,70.0,82,30.10,10.0,East,10.4,-,N/A,,Overcast,80,2011-11-14 08:53:00
4:53 AM,75.0,70.0,84,30.10,10.0,ENE,8.1,-,N/A,,Scattered Clouds,70,2011-11-14 09:53:00
5:53 AM,75.9,71.1,85,30.11,10.0,ENE,12.7,-,N/A,,Mostly Cloudy,70,2011-11-14 10:53:00
6:53 AM,75.9,71.1,85,30.12,10.0,ENE,11.5,-,N/A,,Mostly Cloudy,70,2011-11-14 11:53:00
7:53 AM,77.0,72.0,84,30.14,10.0,East,11.5,-,N/A,,Mostly Cloudy,90,2011-11-14 12:53:00
8:53 AM,78.1,72.0,81,30.14,10.0,East,12.7,-,N/A,,Mostly Cloudy,80,2011-11-14 13:53:00
9:39 AM,78.8,73.4,83,30.14,10.0,East,12.7,-,N/A,,Mostly Cloudy,80,2011-11-14 14:39:00
9:53 AM,80.1,73.0,79,30.14,10.0,East,15.0,21.9,N/A,,Mostly Cloudy,80,2011-11-14 14:53:00
10:09 AM,80.6,73.4,79,30.14,10.0,East,16.1,23.0,N/A,,Mostly Cloudy,80,2011-11-14 15:09:00
10:53 AM,81.0,73.0,77,30.14,10.0,East,15.0,-,N/A,,Scattered Clouds,90,2011-11-14 15:53:00
11:53 AM,81.0,73.0,77,30.12,10.0,East,15.0,-,N/A,,Mostly Cloudy,90,2011-11-14 16:53:00
12:53 PM,81.0,73.9,79,30.08,10.0,East,16.1,23.0,N/A,,Mostly Cloudy,100,2011-11-14 17:53:00
1:10 PM,82.4,73.4,74,30.08,10.0,East,15.0,-,N/A,,Mostly Cloudy,90,2011-11-14 18:10:00
1:53 PM,81.0,73.0,77,30.06,10.0,East,15.0,-,N/A,,Mostly Cloudy,80,2011-11-14 18:53:00
2:33 PM,80.6,73.4,79,30.05,10.0,East,12.7,-,N/A,,Mostly Cloudy,90,2011-11-14 19:33:00
2:53 PM,80.1,73.9,81,30.04,10.0,East,13.8,-,N/A,,Mostly Cloudy,90,2011-11-14 19:53:00
3:01 PM,80.6,73.4,79,30.04,10.0,East,10.4,-,N/A,,Mostly Cloudy,80,2011-11-14 20:01:00
3:53 PM,79.0,75.0,88,30.04,10.0,East,11.5,-,N/A,,Mostly Cloudy,80,2011-11-14 20:53:00
4:07 PM,78.8,75.2,89,30.04,10.0,ENE,9.2,-,N/A,,Mostly Cloudy,70,2011-11-14 21:07:00
4:53 PM,79.0,75.0,88,30.04,10.0,East,11.5,-,N/A,,Mostly Cloudy,90,2011-11-14 21:53:00
5:53 PM,79.0,75.0,88,30.04,10.0,East,10.4,-,N/A,,Mostly Cloudy,80,2011-11-14 22:53:00
6:53 PM,78.1,75.9,93,30.05,10.0,East,8.1,-,0.00,,Mostly Cloudy,80,2011-11-14 23:53:00
7:38 PM,78.8,75.2,89,30.05,10.0,East,9.2,-,N/A,,Mostly Cloudy,80,2011-11-15 00:38:00
7:53 PM,78.1,75.9,93,30.06,10.0,ENE,10.4,-,N/A,,Mostly Cloudy,70,2011-11-15 00:53:00
8:53 PM,79.0,75.0,88,30.06,4.0,ESE,19.6,26.5,0.00,Rain,Light Rain,120,2011-11-15 01:53:00
9:53 PM,77.0,75.9,96,30.06,10.0,ESE,17.3,-,0.00,,Mostly Cloudy,110,2011-11-15 02:53:00
10:31 PM,77.0,75.2,94,30.05,10.0,ESE,12.7,-,0.01,,Mostly Cloudy,120,2011-11-15 03:31:00
10:53 PM,77.0,75.9,96,30.06,4.0,ESE,16.1,19.6,0.01,Rain,Light Rain,120,2011-11-15 03:53:00
11:50 PM,75.2,75.2,100,30.05,8.0,East,8.1,-,0.00,,Overcast,100,2011-11-15 04:50:00
11:53 PM,75.9,75.9,100,30.04,8.0,ESE,9.2,-,0.00,,Overcast,110,2011-11-15 04:53:00